Regional Weather Roundup
Issued by NWS

Home | Current Version | Previous Version | Text Only | Print | Product List | Glossary On
Versions: 1 2 3 4 5 6 7 8 9 10 11 12 13 14 15 16 17 18 19 20 21 22 23 24 25 26 27 28 29 30 31 32 33 34 35 36 37 38 39 40 41 42 43 44 45 46 47 48 49 50
000
ASUS46 KLOX 301113
RWRCA

SOUTHERN CALIFORNIA WEATHER ROUNDUP
NATIONAL WEATHER SERVICE OXNARD CALIFORNIA
400 AM PDT THU JUL 30 2015

NOTE: "FAIR" INDICATES FEW OR NO CLOUDS BELOW 12,000 FEET WITH NO
SIGNIFICANT WEATHER AND/OR OBSTRUCTIONS TO VISIBILITY.

  -  STATIONS PRECEEDED BY AN ASTERISK (*) ARE NOT NWS OR FAA
     STATIONS AND ARE NOT SUBJECT TO NWS AND FAA QUALITY CONTROL.

CAZ041-042-087-301200-
LA AND ORANGE COUNTY COASTAL AREAS


CITY           SKY/WX    TMP DP  RH WIND       PRES   REMARKS
L.A. DOWNTOWN  CLEAR     68  63  84 CALM      29.96S
L.A. AIRPORT   PTCLDY    68  63  84 W7        29.97S
LONG BEACH     CLEAR     70  64  81 NW5       29.96S

CITY           SKY/WX    TMP DP  RH WIND       PRES   REMARKS
AVALON           N/A     64 N/A N/A MISG        N/A
FULLERTON      CLEAR     71  64  78 CALM      29.95S
HAWTHORNE      CLEAR     70  63  78 CALM      29.97S
*REDONDO BEACH   N/A     67  64  87 W1        29.97S
SANTA ANA      CLEAR     70  65  84 CALM      29.96S
STA MONICA APT CLEAR     68  64  87 SW3       29.97S
*UCLA            N/A     66  61  82 S3        29.94S

$$

CAZ547-548-048-301200-
LA COUNTY VALLEYS AND INLAND EMPIRE


CITY           SKY/WX    TMP DP  RH WIND       PRES   REMARKS
BURBANK        CLEAR     73  62  68 S3        29.97S
VAN NUYS       CLEAR     71  62  73 CALM      29.97S

CITY           SKY/WX    TMP DP  RH WIND       PRES   REMARKS
CORONA AIRPORT SUNNY     69  63  81 CALM      29.98S
CHINO          CLEAR     70  64  81 CALM      29.98F
*NORTHRIDGE      N/A     70  59  68 CALM        N/A
ONTARIO        PTCLDY    71  62  73 S5        29.98S
*PASADENA        N/A     70  64  83 CALM        N/A
RIVERSIDE      CLEAR     72  63  73 CALM      29.98S
SAN BERNARDINO NOT AVBL
*WHITEMAN AP   NOT AVBL
*WOODLAND HILL   N/A    N/A N/A N/A S2          N/A

$$

CAZ054-055-301200-
LA AND SAN BERNARDINO COUNTY MOUNTAINS


CITY           SKY/WX    TMP DP  RH WIND       PRES   REMARKS
*BIG BEAR AIRP CLOUDY    55  50  82 W3        30.35S
SANDBERG       CLEAR     78  52  40 CALM      30.20S

$$

CAZ028-029-059-060-099-301200-
ANTELOPE VALLEY AND SURROUNDING AREAS


CITY           SKY/WX    TMP DP  RH WIND       PRES   REMARKS
LANCASTER      CLEAR     75  57  53 CALM      30.04R
PALMDALE       CLEAR     75  65  70 S3        30.05R

CITY           SKY/WX    TMP DP  RH WIND       PRES   REMARKS
29 PALMS         N/A    N/A N/A N/A MISG        N/A
BARSTOW/DAGGET PTCLDY    76  67  73 NW9       30.00F
BISHOP         CLEAR     66  42  41 N6        30.17R
CHINA LAKE     CLEAR     79  54  41 S5        30.04R
MOJAVE         CLEAR     79  54  41 CALM      30.06S
NEEDLES        CLOUDY    94  59  31 CALM      29.91R HX  93
VICTORVILLE    CLEAR     73  66  78 CALM      30.08S

$$

CAZ039-040-301200-
VENTURA AND SANTA BARBARA COUNTY COAST


CITY           SKY/WX    TMP DP  RH WIND       PRES   REMARKS
CAMARILLO      CLEAR     67  61  81 W5        29.95F
OXNARD AIRPORT CLEAR     66  62  87 NW5       29.96F
*POINT MUGU    CLEAR     68  62  81 NW5       29.96F
SBA APT/GOLETA CLOUDY    65  60  84 CALM      29.97F
*SANTA BARBARA   N/A     66  60  81 CALM      30.05S
*VENTURA         N/A     66  62  85 CALM      29.56F

$$

CAZ044-045-301200-
VENTURA COUNTY VALLEYS


CITY           SKY/WX    TMP DP  RH WIND       PRES   REMARKS
*SIMI VALLEY     N/A     67  62  84 CALM      29.90F
*OJAI            N/A     64  60  87 CALM      29.90S
*FILLMORE        N/A     65  61  86 CALM      29.86F

$$

CAZ053-301200-
VENTURA COUNTY MOUNTAINS


CITY           SKY/WX    TMP DP  RH WIND       PRES   REMARKS

$$

CAZ034-035-036-301200-
CENTRAL COAST AND SANTA YNEZ VALLEY


CITY           SKY/WX    TMP DP  RH WIND       PRES   REMARKS
SAN LUIS OBISP CLOUDY    61  58  90 W3        29.99S
SANTA MARIA    CLOUDY    62  59  90 CALM      30.00R

CITY           SKY/WX    TMP DP  RH WIND       PRES   REMARKS
*CAL POLY SLO    N/A     61  61 100 CALM        N/A
*LOMPOC        CLOUDY    61  54  77 CALM      30.01R
*PISMO BEACH     N/A     61  59  93 NE1       30.00S
*SANTA YNEZ    FAIR      59  55  88 CALM      29.99S

$$

CAZ037-038-051-301200-
SAN LUIS OBISPO COUNTY INTERIOR AND CUYAMA VALLEY


CITY           SKY/WX    TMP DP  RH WIND       PRES   REMARKS
*CUYAMA          N/A     70  52  52 CALM      29.89S
PASO ROBLES    CLEAR     62  57  83 CALM      29.99R

$$

CAZ032-033-061-301200-
SOUTHERN DESERTS


CITY           SKY/WX    TMP DP  RH WIND       PRES   REMARKS
BLYTHE         MOCLDY    92  61  35 S9        29.87F HX  92
IMPERIAL       CLEAR     86  69  56 E7        29.85S HX  90
PALM SPRINGS   CLOUDY    90  64  42 CALM      29.91F HX  91
THERMAL        PTCLDY    88  71  57 S5        29.85S HX  94

$$

ELSEWHERE ACROSS THE WESTERN UNITED STATES AND MEXICO


CITY           SKY/WX    TMP DP  RH WIND       PRES   REMARKS
DENVER, CO     PTCLDY    60  50  69 W6        30.30S
GRAND CANYON,  CLOUDY    57  47  69 CALM      30.38S
HONOLULU, HI   PTCLDY    79  68  69 CALM      29.95F
KAHULUI, MAUI  PTCLDY    79  72  78 NE12      29.96F
LAKE TAHOE, CA CLEAR     49  36  61 S5        30.35S
LAS VEGAS, NV  CLOUDY    88  52  29 S10       29.95S
MAMMOTH LAKES, FAIR      52  30  43 CALM      30.42R
MEXICO CITY, M MOCLDY    61  52  72 NW6       30.38S
PHOENIX, AZ    MOCLDY    85  63  47 E5        29.95S
PORTLAND, OR   CLEAR     68  54  60 CALM      30.01S
RENO, NV       CLEAR     64  35  34 S5        30.22S
SALT LAKE CITY CLEAR     62  39  42 S8        30.25F
SAN DIEGO, CA  MOCLDY    71  64  78 NW6       29.97S
SAN FRANCISCO, MOCLDY    60  57  89 W8        29.97S
SAN JOSE, CA   CLEAR     63  59  87 NW6       29.97S
SEATTLE, WA    CLEAR     67  52  58 NE8       30.10S
TIJUANA, MEX   MOCLDY    68  61  77 W5        29.99S

$$

STATION/POSITION TIME  TEMP    WIND        PRES    VSBY  WAVE
                       AIR SEA DIR/SP/G                  HT/PER
                 (UTC) (F)     (DEG/KT/KT) (MB)    (MI)  (FT/S)
POINT ARGUELLO B NOT AVBL
WEST SANTA BARBA 1050   61 61  310/  8/ 10 1014.7R         4/10
POINT CONCEPTION NOT AVBL
EAST SANTA BARBA 1000   64 67  240/  8/ 10 1015.6S
SANTA MONICA BAY 1050   67 73  310/  6/  6 1014.6F         3/15


USA.gov is the U.S. government's official web portal to all federal, state and local government web resources and services.